Time,TemperatureF,DewpointF,PressureIn,WindDirection,WindDirectionDegrees,WindSpeedMPH,WindSpeedGustMPH,Humidity,HourlyPrecipIn,Conditions,Clouds,dailyrainin,SolarRadiationWatts/m^2,SoftwareType,DateUTC
2013-05-12 07:54:00,44.1,13.1,30.21,NNW,338,2.0,2.7,28,0.00,,---,0.00,0.00,VWS V14.01,2013-05-12 12:54:00,
2013-05-12 07:55:00,44.2,13.2,30.21,NW,315,2.5,2.5,28,0.00,,---,0.00,0.00,VWS V14.01,2013-05-12 12:55:00,
2013-05-12 07:59:00,44.6,12.7,30.21,NNW,338,2.5,2.5,27,0.00,,---,0.00,0.00,VWS V14.01,2013-05-12 12:59:00,
2013-05-12 08:00:00,45.1,13.2,30.21,North,0,3.1,3.1,27,0.00,,---,0.00,0.00,VWS V14.01,2013-05-12 13:00:00,
2013-05-12 08:03:00,45.1,13.2,30.21,NNW,338,2.9,3.1,27,0.00,,---,0.00,0.00,VWS V14.01,2013-05-12 13:03:00,
2013-05-12 08:09:00,45.9,13.8,30.18,NNW,338,2.5,2.9,27,0.00,,---,0.00,0.00,VWS V14.01,2013-05-12 13:09:00,
2013-05-12 08:15:00,45.9,13.8,30.18,NNW,338,3.8,3.8,27,0.00,,---,0.00,0.00,VWS V14.01,2013-05-12 13:15:00,
2013-05-12 08:21:00,47.8,10.9,30.18,NNW,338,3.4,3.4,22,0.00,,---,0.00,0.00,VWS V14.01,2013-05-12 13:21:00,
2013-05-12 08:27:00,48.4,10.3,30.18,ENE,68,2.0,2.0,21,0.00,,---,0.00,0.00,VWS V14.01,2013-05-12 13:27:00,
2013-05-12 08:33:00,49.3,11.0,30.18,NNE,22,2.5,4.0,21,0.00,,---,0.00,0.00,VWS V14.01,2013-05-12 13:33:00,
2013-05-12 08:38:00,49.3,11.0,30.18,NE,45,4.9,4.9,21,0.00,,---,0.00,0.00,VWS V14.01,2013-05-12 13:38:00,
2013-05-12 08:43:00,49.6,9.1,30.18,North,0,4.7,6.0,19,0.00,,---,0.00,0.00,VWS V14.01,2013-05-12 13:43:00,
2013-05-12 08:48:00,50.2,11.8,30.18,NNE,22,3.1,3.4,21,0.00,,---,0.00,0.00,VWS V14.01,2013-05-12 13:48:00,
2013-05-12 08:54:00,50.4,9.7,30.18,NNE,22,2.9,4.7,19,0.00,,---,0.00,0.00,VWS V14.01,2013-05-12 13:54:00,
2013-05-12 08:59:00,51.1,10.3,30.18,NNE,22,2.7,2.7,19,0.00,,---,0.00,0.00,VWS V14.01,2013-05-12 13:59:00,
2013-05-12 09:06:00,51.1,10.3,30.21,East,90,4.3,4.3,19,0.00,,---,0.00,0.00,VWS V14.01,2013-05-12 14:06:00,
2013-05-12 09:11:00,52.0,9.8,30.21,ENE,68,3.1,3.1,18,0.00,,---,0.00,0.00,VWS V14.01,2013-05-12 14:11:00,
2013-05-12 09:16:00,52.0,9.8,30.21,ENE,68,2.9,2.9,18,0.00,,---,0.00,0.00,VWS V14.01,2013-05-12 14:16:00,
2013-05-12 09:22:00,53.2,10.9,30.21,ENE,68,3.4,5.4,18,0.00,,---,0.00,0.00,VWS V14.01,2013-05-12 14:22:00,
2013-05-12 09:27:00,53.8,11.3,30.21,East,90,0.0,0.0,18,0.00,,---,0.00,0.00,VWS V14.01,2013-05-12 14:27:00,
2013-05-12 09:33:00,53.8,11.3,30.21,NW,315,0.0,0.0,18,0.00,,---,0.00,0.00,VWS V14.01,2013-05-12 14:33:00,
2013-05-12 09:38:00,54.5,11.9,30.21,ENE,68,6.5,6.5,18,0.00,,---,0.00,0.00,VWS V14.01,2013-05-12 14:38:00,
2013-05-12 09:43:00,54.5,11.9,30.21,NNE,22,2.5,2.7,18,0.00,,---,0.00,0.00,VWS V14.01,2013-05-12 14:43:00,
2013-05-12 09:49:00,54.5,11.9,30.21,NNE,22,2.5,2.5,18,0.00,,---,0.00,0.00,VWS V14.01,2013-05-12 14:49:00,
2013-05-12 09:55:00,54.5,11.9,30.21,East,90,3.8,3.8,18,0.00,,---,0.00,0.00,VWS V14.01,2013-05-12 14:55:00,
2013-05-12 10:00:00,55.8,11.6,30.21,WNW,292,2.5,2.5,17,0.00,,---,0.00,0.00,VWS V14.01,2013-05-12 15:00:00,
2013-05-12 10:06:00,56.3,12.1,30.18,SE,135,2.9,4.0,17,0.00,,---,0.00,0.00,VWS V14.01,2013-05-12 15:06:00,
2013-05-12 10:11:00,56.3,12.1,30.18,SE,135,3.6,3.6,17,0.00,,---,0.00,0.00,VWS V14.01,2013-05-12 15:11:00,
2013-05-12 10:16:00,56.8,12.5,30.18,NNE,22,2.0,2.0,17,0.00,,---,0.00,0.00,VWS V14.01,2013-05-12 15:16:00,
2013-05-12 10:22:00,57.2,12.8,30.18,SE,135,2.0,2.0,17,0.00,,---,0.00,0.00,VWS V14.01,2013-05-12 15:22:00,
2013-05-12 10:27:00,57.2,12.8,30.21,NW,315,5.4,5.4,17,0.00,,---,0.00,0.00,VWS V14.01,2013-05-12 15:27:00,
2013-05-12 10:33:00,57.2,12.8,30.21,NNE,22,2.7,3.8,17,0.00,,---,0.00,0.00,VWS V14.01,2013-05-12 15:33:00,
2013-05-12 10:38:00,57.0,12.7,30.21,WSW,248,3.8,3.8,17,0.00,,---,0.00,0.00,VWS V14.01,2013-05-12 15:38:00,
2013-05-12 10:44:00,57.2,12.8,30.21,WNW,292,3.6,3.6,17,0.00,,---,0.00,0.00,VWS V14.01,2013-05-12 15:44:00,
2013-05-12 10:52:00,0.0,0.0,30.21,WSW,248,4.0,4.0,0,0.00,,---,0.00,0.00,VWS V14.01,2013-05-12 15:52:00,
2013-05-12 10:59:00,0.0,0.0,30.21,WNW,292,4.7,4.7,0,0.00,,---,5.91,0.00,VWS V14.01,2013-05-12 15:59:00,
2013-05-12 11:04:00,57.2,12.8,30.21,NNW,338,3.6,3.6,17,0.00,,---,5.91,0.00,VWS V14.01,2013-05-12 16:04:00,
2013-05-12 11:10:00,57.0,12.7,30.21,NNW,338,2.2,2.2,17,0.00,,---,5.91,0.00,VWS V14.01,2013-05-12 16:10:00,
2013-05-12 11:16:00,57.6,13.1,30.21,NNW,338,2.5,5.6,17,0.00,,---,5.91,0.00,VWS V14.01,2013-05-12 16:16:00,
2013-05-12 11:22:00,57.6,13.1,30.21,North,0,3.6,5.6,17,0.00,,---,5.91,0.00,VWS V14.01,2013-05-12 16:22:00,
2013-05-12 11:28:00,57.4,12.9,30.21,NNE,22,4.3,4.3,17,0.00,,---,5.91,0.00,VWS V14.01,2013-05-12 16:28:00,
2013-05-12 11:34:00,57.4,12.9,30.21,North,0,5.4,6.3,17,0.00,,---,5.91,0.00,VWS V14.01,2013-05-12 16:34:00,
2013-05-12 11:40:00,57.9,13.4,30.21,NW,315,9.0,11.9,17,0.00,,---,5.91,0.00,VWS V14.01,2013-05-12 16:40:00,
2013-05-12 11:46:00,57.9,13.4,30.21,WNW,292,6.5,9.0,17,0.00,,---,5.91,0.00,VWS V14.01,2013-05-12 16:46:00,
2013-05-12 11:52:00,57.9,13.4,30.21,NNE,22,8.1,8.1,17,0.00,,---,5.91,0.00,VWS V14.01,2013-05-12 16:52:00,
2013-05-12 11:58:00,57.6,13.1,30.21,NNW,338,3.1,3.1,17,0.00,,---,5.91,0.00,VWS V14.01,2013-05-12 16:58:00,
2013-05-12 12:03:00,57.7,13.2,30.21,NNW,338,5.8,5.8,17,0.00,,---,5.91,0.00,VWS V14.01,2013-05-12 17:03:00,
2013-05-12 12:09:00,57.7,13.2,30.18,NNW,338,7.4,7.4,17,0.00,,---,5.91,0.00,VWS V14.01,2013-05-12 17:09:00,
2013-05-12 12:15:00,57.7,13.2,30.18,NW,315,1.6,1.6,17,0.00,,---,5.91,0.00,VWS V14.01,2013-05-12 17:15:00,
2013-05-12 12:20:00,57.7,13.2,30.18,WNW,292,5.6,5.6,17,0.00,,---,5.91,0.00,VWS V14.01,2013-05-12 17:20:00,
2013-05-12 12:26:00,57.7,13.2,30.18,NNE,22,7.2,7.4,17,0.00,,---,5.91,0.00,VWS V14.01,2013-05-12 17:26:00,
2013-05-12 12:31:00,59.0,14.3,30.18,NNE,22,3.8,4.7,17,0.00,,---,5.91,0.00,VWS V14.01,2013-05-12 17:31:00,
2013-05-12 12:37:00,59.7,14.9,30.18,West,270,2.7,2.7,17,0.00,,---,5.91,0.00,VWS V14.01,2013-05-12 17:37:00,
2013-05-12 12:43:00,59.7,14.9,30.18,NNE,22,7.4,7.4,17,0.00,,---,5.91,0.00,VWS V14.01,2013-05-12 17:43:00,
2013-05-12 12:49:00,59.7,14.9,30.18,NE,45,2.9,5.6,17,0.00,,---,5.91,0.00,VWS V14.01,2013-05-12 17:49:00,
2013-05-12 12:54:00,60.3,15.3,30.15,WNW,292,6.5,6.5,17,0.00,,---,5.91,0.00,VWS V14.01,2013-05-12 17:54:00,
2013-05-12 12:59:00,60.1,15.1,30.15,NNW,338,3.1,7.4,17,0.00,,---,5.91,0.00,VWS V14.01,2013-05-12 17:59:00,
2013-05-12 13:04:00,60.3,15.3,30.15,NNE,22,6.0,6.0,17,0.00,,---,5.91,0.00,VWS V14.01,2013-05-12 18:04:00,
2013-05-12 13:10:00,60.1,15.1,30.15,NNE,22,6.0,6.5,17,0.00,,---,5.91,0.00,VWS V14.01,2013-05-12 18:10:00,
2013-05-12 13:15:00,60.4,15.4,30.15,NW,315,3.4,3.4,17,0.00,,---,5.91,0.00,VWS V14.01,2013-05-12 18:15:00,
2013-05-12 13:20:00,60.6,15.6,30.15,West,270,3.4,4.3,17,0.00,,---,5.91,0.00,VWS V14.01,2013-05-12 18:20:00,
2013-05-12 13:26:00,60.6,15.6,30.15,NNW,338,4.3,4.3,17,0.00,,---,5.91,0.00,VWS V14.01,2013-05-12 18:26:00,
2013-05-12 13:31:00,60.6,15.6,30.15,WNW,292,5.6,8.1,17,0.00,,---,5.91,0.00,VWS V14.01,2013-05-12 18:31:00,
2013-05-12 13:36:00,60.8,14.4,30.15,NNW,338,5.4,10.1,16,0.00,,---,5.91,0.00,VWS V14.01,2013-05-12 18:36:00,
2013-05-12 13:41:00,60.6,15.6,30.15,NNW,338,4.3,6.0,17,0.00,,---,5.91,0.00,VWS V14.01,2013-05-12 18:41:00,
2013-05-12 13:47:00,60.6,15.6,30.15,ENE,68,2.9,4.9,17,0.00,,---,5.91,0.00,VWS V14.01,2013-05-12 18:47:00,
2013-05-12 13:52:00,61.0,14.5,30.12,NW,315,6.0,7.8,16,0.00,,---,5.91,0.00,VWS V14.01,2013-05-12 18:52:00,
2013-05-12 13:57:00,61.0,14.5,30.12,NNE,22,4.9,4.9,16,0.00,,---,5.91,0.00,VWS V14.01,2013-05-12 18:57:00,
2013-05-12 14:03:00,61.5,14.9,30.12,North,0,2.5,4.9,16,0.00,,---,5.91,0.00,VWS V14.01,2013-05-12 19:03:00,
2013-05-12 14:08:00,61.3,14.8,30.15,NNW,338,0.9,0.9,16,0.00,,---,5.91,0.00,VWS V14.01,2013-05-12 19:08:00,
2013-05-12 14:13:00,61.3,14.8,30.15,North,0,4.5,4.5,16,0.00,,---,5.91,0.00,VWS V14.01,2013-05-12 19:13:00,
2013-05-12 14:18:00,61.3,14.8,30.15,WNW,292,4.0,4.0,16,0.00,,---,5.91,0.00,VWS V14.01,2013-05-12 19:18:00,
2013-05-12 14:24:00,61.5,14.9,30.15,West,270,3.8,4.9,16,0.00,,---,5.91,0.00,VWS V14.01,2013-05-12 19:24:00,
2013-05-12 14:30:00,61.7,15.1,30.15,NW,315,9.6,9.6,16,0.00,,---,5.91,0.00,VWS V14.01,2013-05-12 19:30:00,
2013-05-12 14:36:00,62.2,15.5,30.15,WSW,248,2.9,2.9,16,0.00,,---,5.91,0.00,VWS V14.01,2013-05-12 19:36:00,
2013-05-12 14:41:00,62.2,15.5,30.15,NNW,338,3.4,4.0,16,0.00,,---,5.91,0.00,VWS V14.01,2013-05-12 19:41:00,
2013-05-12 14:47:00,62.2,15.5,30.15,NNE,22,4.0,4.0,16,0.00,,---,5.91,0.00,VWS V14.01,2013-05-12 19:47:00,
2013-05-12 14:53:00,63.1,16.2,30.12,NW,315,3.1,3.1,16,0.00,,---,5.91,0.00,VWS V14.01,2013-05-12 19:53:00,
2013-05-12 14:59:00,63.5,16.5,30.12,NW,315,5.8,5.8,16,0.00,,---,5.91,0.00,VWS V14.01,2013-05-12 19:59:00,
2013-05-12 15:04:00,63.1,16.2,30.12,NW,315,6.0,6.5,16,0.00,,---,5.91,0.00,VWS V14.01,2013-05-12 20:04:00,
2013-05-12 15:09:00,63.0,16.1,30.12,WNW,292,7.6,7.6,16,0.00,,---,5.91,0.00,VWS V14.01,2013-05-12 20:09:00,
2013-05-12 15:15:00,63.1,16.2,30.12,ESE,112,2.9,2.9,16,0.00,,---,5.91,0.00,VWS V14.01,2013-05-12 20:15:00,
2013-05-12 15:20:00,63.1,16.2,30.12,SE,135,4.3,4.3,16,0.00,,---,5.91,0.00,VWS V14.01,2013-05-12 20:20:00,
2013-05-12 15:26:00,64.2,17.1,30.12,West,270,2.7,2.7,16,0.00,,---,5.91,0.00,VWS V14.01,2013-05-12 20:26:00,
2013-05-12 15:31:00,64.2,17.1,30.12,SW,225,5.4,5.6,16,0.00,,---,5.91,0.00,VWS V14.01,2013-05-12 20:31:00,
2013-05-12 15:37:00,63.9,16.8,30.12,NNE,22,7.8,7.8,16,0.00,,---,5.91,0.00,VWS V14.01,2013-05-12 20:37:00,
2013-05-12 15:43:00,64.0,17.0,30.12,NNW,338,5.8,5.8,16,0.00,,---,5.91,0.00,VWS V14.01,2013-05-12 20:43:00,
2013-05-12 15:49:00,64.0,17.0,30.12,NNW,338,5.6,5.6,16,0.00,,---,5.91,0.00,VWS V14.01,2013-05-12 20:49:00,
2013-05-12 15:54:00,64.2,17.1,30.12,WSW,248,3.8,3.8,16,0.00,,---,5.91,0.00,VWS V14.01,2013-05-12 20:54:00,
2013-05-12 15:59:00,64.2,17.1,30.12,NNE,22,2.5,2.7,16,0.00,,---,5.91,0.00,VWS V14.01,2013-05-12 20:59:00,
2013-05-12 16:05:00,64.6,15.9,30.12,NW,315,4.7,7.4,15,0.00,,---,5.91,0.00,VWS V14.01,2013-05-12 21:05:00,
2013-05-12 16:10:00,64.4,15.8,30.09,NNE,22,4.7,4.7,15,0.00,,---,5.91,0.00,VWS V14.01,2013-05-12 21:10:00,
2013-05-12 16:16:00,64.4,15.8,30.09,SE,135,1.6,2.9,15,0.00,,---,5.91,0.00,VWS V14.01,2013-05-12 21:16:00,
2013-05-12 16:21:00,64.6,15.9,30.09,NNW,338,4.5,4.5,15,0.00,,---,5.91,0.00,VWS V14.01,2013-05-12 21:21:00,
2013-05-12 16:26:00,64.8,16.1,30.09,NW,315,5.6,5.6,15,0.00,,---,5.91,0.00,VWS V14.01,2013-05-12 21:26:00,
2013-05-12 16:32:00,64.6,15.9,30.09,NW,315,6.3,6.3,15,0.00,,---,5.91,0.00,VWS V14.01,2013-05-12 21:32:00,
2013-05-12 16:38:00,64.6,15.9,30.09,NNW,338,3.8,3.8,15,0.00,,---,5.91,0.00,VWS V14.01,2013-05-12 21:38:00,
2013-05-12 16:44:00,64.8,16.1,30.09,NNW,338,2.9,3.1,15,0.00,,---,5.91,0.00,VWS V14.01,2013-05-12 21:44:00,
2013-05-12 16:49:00,64.6,15.9,30.06,NNE,22,5.4,5.4,15,0.00,,---,5.91,0.00,VWS V14.01,2013-05-12 21:49:00,
2013-05-12 16:54:00,65.3,16.5,30.06,ENE,68,2.5,3.6,15,0.00,,---,5.91,0.00,VWS V14.01,2013-05-12 21:54:00,
2013-05-12 16:59:00,65.3,16.5,30.06,NE,45,3.6,3.6,15,0.00,,---,5.91,0.00,VWS V14.01,2013-05-12 21:59:00,
2013-05-12 17:05:00,65.8,16.9,30.09,NE,45,5.6,5.6,15,0.00,,---,5.91,0.00,VWS V14.01,2013-05-12 22:05:00,
2013-05-12 17:11:00,65.7,16.8,30.09,WNW,292,5.8,5.8,15,0.00,,---,5.91,0.00,VWS V14.01,2013-05-12 22:11:00,
2013-05-12 17:17:00,65.5,16.6,30.09,NNE,22,3.4,4.3,15,0.00,,---,5.91,0.00,VWS V14.01,2013-05-12 22:17:00,
2013-05-12 17:22:00,65.1,16.4,30.09,NNW,338,3.8,3.8,15,0.00,,---,5.91,0.00,VWS V14.01,2013-05-12 22:22:00,
2013-05-12 17:27:00,65.3,16.5,30.06,NNW,338,4.7,4.7,15,0.00,,---,5.91,0.00,VWS V14.01,2013-05-12 22:27:00,
2013-05-12 17:33:00,65.3,16.5,30.06,WSW,248,2.2,2.2,15,0.00,,---,5.91,0.00,VWS V14.01,2013-05-12 22:33:00,
2013-05-12 17:38:00,65.3,16.5,30.09,North,0,4.3,4.3,15,0.00,,---,5.91,0.00,VWS V14.01,2013-05-12 22:38:00,
2013-05-12 17:45:00,65.3,16.5,30.09,North,0,3.1,3.1,15,0.00,,---,5.91,0.00,VWS V14.01,2013-05-12 22:45:00,
2013-05-12 17:51:00,64.9,16.2,30.09,NW,315,0.0,3.1,15,0.00,,---,5.91,0.00,VWS V14.01,2013-05-12 22:51:00,
2013-05-12 17:57:00,65.3,16.5,30.09,NNE,22,3.6,3.6,15,0.00,,---,5.91,0.00,VWS V14.01,2013-05-12 22:57:00,
2013-05-12 18:02:00,65.3,16.5,30.09,NNE,22,1.6,4.0,15,0.00,,---,5.91,0.00,VWS V14.01,2013-05-12 23:02:00,
2013-05-12 18:09:00,64.9,16.2,30.09,NNE,22,2.9,4.0,15,0.00,,---,5.91,0.00,VWS V14.01,2013-05-12 23:09:00,
2013-05-12 18:15:00,64.9,16.2,30.09,NNW,338,2.5,2.5,15,0.00,,---,5.91,0.00,VWS V14.01,2013-05-12 23:15:00,
2013-05-12 18:20:00,65.1,16.4,30.09,WNW,292,3.6,3.6,15,0.00,,---,5.91,0.00,VWS V14.01,2013-05-12 23:20:00,
2013-05-12 18:25:00,65.1,16.4,30.09,WSW,248,2.0,2.0,15,0.00,,---,5.91,0.00,VWS V14.01,2013-05-12 23:25:00,
2013-05-12 18:31:00,65.5,16.6,30.09,ENE,68,0.0,0.0,15,0.00,,---,5.91,0.00,VWS V14.01,2013-05-12 23:31:00,
2013-05-12 18:37:00,65.7,16.8,30.09,NNE,22,4.0,4.0,15,0.00,,---,5.91,0.00,VWS V14.01,2013-05-12 23:37:00,
2013-05-12 18:43:00,65.7,16.8,30.09,ENE,68,0.0,4.0,15,0.00,,---,5.91,0.00,VWS V14.01,2013-05-12 23:43:00,
2013-05-12 18:49:00,65.7,16.8,30.09,NNE,22,2.7,2.7,15,0.00,,---,5.91,0.00,VWS V14.01,2013-05-12 23:49:00,
2013-05-12 18:55:00,65.3,16.5,30.09,NNW,338,2.0,2.0,15,0.00,,---,5.91,0.00,VWS V14.01,2013-05-12 23:55:00,
2013-05-12 19:01:00,65.3,16.5,30.09,NNE,22,2.5,3.1,15,0.00,,---,5.91,0.00,VWS V14.01,2013-05-13 00:01:00,
2013-05-12 19:06:00,65.3,16.5,30.09,ENE,68,1.6,2.0,15,0.00,,---,5.91,0.00,VWS V14.01,2013-05-13 00:06:00,
2013-05-12 19:11:00,65.5,16.6,30.09,NNE,22,2.2,2.2,15,0.00,,---,5.91,0.00,VWS V14.01,2013-05-13 00:11:00,
2013-05-12 19:16:00,65.3,16.5,30.09,NNE,22,0.0,0.0,15,0.00,,---,5.91,0.00,VWS V14.01,2013-05-13 00:16:00,
2013-05-12 19:22:00,65.3,16.5,30.09,NNE,22,0.0,0.0,15,0.00,,---,5.91,0.00,VWS V14.01,2013-05-13 00:22:00,
2013-05-12 19:28:00,65.1,16.4,30.09,ENE,68,0.0,0.0,15,0.00,,---,5.91,0.00,VWS V14.01,2013-05-13 00:28:00,
2013-05-12 19:33:00,65.3,16.5,30.09,ENE,68,1.3,1.3,15,0.00,,---,5.91,0.00,VWS V14.01,2013-05-13 00:33:00,